sat.trackr.live / text

‹ back to catalog

QIANFAN-122

NORAD 68649 · 2026-075P

PAYLOAD ACTIVE UNKNOWN

§ Identity

Operator
Country
PRC
Launch date
2026-04-07
Launch site
WSC
Launch vehicle
Mass (kg)
RCS (m²)

External: N2YO · Heavens-Above · Gunter

§ Orbital elements

Epoch: 2026-05-24T02:58:47.296128Z

Period
105.34 min
Inclination
88.9875°
Eccentricity
0.0009929
Mean motion
13.66987831 rev/d
Perigee alt
1,003.1 km
Apogee alt
1,017.7 km
Semi-major
7,388.5 km
B*
3.4884e-5
RAAN
323.4690°
Arg perigee
68.0287°
Mean anomaly
292.1927°
Rev number
655

§ Raw data

QIANFAN-1221 68649U 26075P   26144.12415852  .00000042  00000+0  34884-4 0  99942 68649  88.9875 323.4690 0009929  68.0287 292.1927 13.66987831  6557

JSON: /api/v1/satellites/68649 · /tle

For live sub-satellite position, see the globe view (requires WebGL).

§ Visibility from observer

Set your observer location to see the next 7 days of passes ≥ 10°. The values pass through the URL so the page stays shareable.

No JS? Fill the form by hand. The geolocation button needs JavaScript.